Regional Weather Roundup
Issued by NWS Wakefield, VA

Current Version | Previous Version | Text Only | Print | Product List | Glossary Off
Versions: 1 2 3 4 5 6 7 8 9 10 11 12 13 14 15 16 17 18 19 20 21 22 23 24 25 26 27

000
ASUS41 KAKQ 221515
RWRAKQ

REGIONAL WEATHER ROUNDUP
NATIONAL WEATHER SERVICE WAKEFIELD VA
1000 AM EST THU FEB 22 2018

Note: "fair" indicates few or no clouds below 12,000 feet with no
significant weather and/or obstructions to visibility. * = Denotes
station may not report precipitation (e.g., rain,snow,etc.),
thunder or fog.

VAZ042-051-052>054-056-221600-
NORTHERN VIRGINIA

CITY           SKY/WX    TMP DP  RH WIND       PRES   REMARKS
WASH NATIONAL  CLOUDY    55  41  59 NE14      30.49R
DULLES         CLOUDY    51  39  63 N8        30.48S
FORT BELVOIR   CLOUDY    56  37  49 NE3       30.48S
QUANTICO       CLOUDY    56  44  64 NE12      30.48S
FREDERICKSBRG* CLOUDY    57  51  78 NE10      30.45F
STAFFORD*      CLOUDY    57  48  72 E12       30.50F
WARRENTON      CLOUDY    52  40  64 N6        30.47S
CULPEPER*      DRIZZLE   53  44  71 N7        30.49R
MANASSAS*      CLOUDY    52  42  69 N10       30.48F
LEESBURG*      CLOUDY    50  37  62 N8        30.51R
WINCHESTER     CLOUDY    43  34  70 N6        30.51S
FRONT ROYAL*   CLOUDY    46  36  66 NE9       30.49R
LURAY*         LGT RAIN  46  43  87 N9        30.46R
$$

VAZ048-049-060>072-079>083-221600-
CENTRAL AND SOUTH CENTRAL VIRGINIA

CITY           SKY/WX    TMP DP  RH WIND       PRES   REMARKS
RICHMOND       CLOUDY    64  63  96 SW10      30.45R
CHESTERFIELD*  CLOUDY    65  63  93 VRB5      30.46R
PETERSBURG*    NOT AVBL
HANOVER        CLOUDY    63  63 100 S10       30.45R FOG
TAPPAHANNOCK*  CLOUDY    60  59  98 N6        30.46R FOG
QUINTON*       CLOUDY    64  64 100 SW5       30.45R
CHARLOTTSVILLE CLOUDY    56  49  77 NE10      30.45S
GORDONSVILLE*  CLOUDY    54  48  81 N7        30.46R
ORANGE*        CLOUDY    52  45  76 N8        30.46S
LOUISA*        CLOUDY    54  51  89 N7        30.49S
BUMPASS*       CLOUDY    57  55  91 NW6       30.45R
FARMVILLE*     CLOUDY   N/A N/A N/A S3        30.43S
CREWE*         CLOUDY    65  65 100 SW5       30.45S
FORT PICKETT*  CLOUDY    65  65 100 SW8       30.45S
CHASE CITY*    CLOUDY    67  67 100 SW5       30.46R
CLARKSVILLE*   CLOUDY    68  64  88 SW9       30.45S
SOUTH HILL*    CLOUDY    66  65  95 SW8       30.52R
LAWRENCEVILLE* CLOUDY    66  64  94 SW8       30.46R
EMPORIA*       CLOUDY    66  63  88 S5        30.48S
$$

VAZ088>098-221600-
SOUTHEAST VIRGINIA

CITY           SKY/WX    TMP DP  RH WIND       PRES   REMARKS
NORFOLK        CLOUDY    69  64  84 SW14      30.46R
VIRGINIA BEACH CLOUDY    67  62  84 SW15      30.46R
NORFOLK NAVAL  CLOUDY    68  63  84 SW10      30.48
WEST POINT*    CLOUDY    65  62  90 SW6       30.47S
SALUDA*        CLOUDY    66  66 100 SW5       30.44S
NEWPORT NEWS   CLOUDY    67  62  84 SW6       30.46R
LANGLEY AFB    CLOUDY    68  65  92 SW8       30.46R
FORT EUSTIS    CLOUDY    66  63  90 SW7       30.43S
WILLIAMSBURG*  FAIR      68  66  94 SW7       30.47R
HR EXEC AP*    CLOUDY    69  64  84 SW12      30.48R
FRANKLIN*      CLOUDY    68  64  88 SW7       30.47S
US460-WAKEFLD  CLOUDY    68  65  90 VRB7      30.46R
$$

VAZ020-022-025-037-045-221600-
WEST CENTRAL AND SOUTHWEST VIRGINIA

CITY           SKY/WX    TMP DP  RH WIND       PRES   REMARKS
STAUNTON*      CLOUDY    51  49  92 N6        30.46R
WAYNESBORO*    CLOUDY    55  54  97 N8        30.44R
HOT SPRINGS VA FAIR      61  58  91 SW8       30.46S
LYNCHBURG      CLOUDY    67  62  84 S13       30.43S
DANVILLE       CLOUDY    66  63  90 SW8       30.45R
SOUTH BOSTON*  CLOUDY    67  64  89 SW5       30.46S
MARTINSVILLE   CLOUDY    66  60  81 SW9       30.47S
ROANOKE        FAIR      69  62  78 SE7       30.42F
BLACKSBURG     FAIR      70  60  69 SW8G17    30.46S
DUBLIN*        FAIR      71  59  65 SW13G20   30.43S
MARION*        FAIR      72  51  47 SW3G17    30.46R
HILLSVILLE*    PTSUNNY   65  59  80 S13G20    30.45S
RICHLANDS*     FAIR      68  54  60 SW8G20    30.43R
WISE*          CLOUDY    64  57  77 SW17G28   30.44R
ABINGDON*      PTSUNNY   72  58  60 W12       30.43R
$$

MDZ021>025-VAZ099-100-221600-
SOUTHERN MARYLAND AND THE DELMARVA PENINSULA

CITY           SKY/WX    TMP DP  RH WIND       PRES   REMARKS
PATUXENT RIVER DRIZZLE   55  51  86 E12       30.47R
BAY BRIDGE APT CLOUDY    52  45  76 NE8       30.49S
LEONARDTOWN    CLOUDY    54  50  87 NE7       30.49R
DOVER          CLOUDY    53  44  70 E12       30.51R
GEORGETOWN     CLOUDY    50  40  68 NE18G25   30.52R
EASTON         CLOUDY    57  41  54 E14G20    30.53R
CAMBRIDGE      CLOUDY    55  43  62 E12       30.49R
SALISBURY      CLOUDY    53  43  68 E15       30.49R
OCEAN CITY     CLOUDY    50  44  80 NE10      30.50R
WALLOPS ISLAND CLOUDY    53  49  86 NE16      30.48R
ACCOMACK*      CLOUDY    63  60  92 CALM      30.46R
$$

NCZ012>017-030>032-221600-
NORTH CENTRAL AND EASTERN NORTH CAROLINA

CITY           SKY/WX    TMP DP  RH WIND       PRES   REMARKS
ROANOKE RAPIDS CLOUDY    70  64  83 SW14      30.47R
RALEIGH        CLOUDY    68  63  84 SW13      30.48R
ELIZABETH CITY CLOUDY    66  66 100 S9        30.49S
AHOSKIE*       CLOUDY    67  66  95 SW6       30.48R
EDENTON*       CLOUDY    68  68 100 S6        30.50R FOG
CURRITUCK*     CLOUDY    62  61  97 SW9       30.49S
KILL DEVIL HLS PTSUNNY  N/A N/A N/A SW6       30.49S
MANTEO         CLOUDY    64  64 100 W7        30.51S
CAPE HATTERAS  CLOUDY    67  65  93 SW6       30.52R
TARBORO*       NOT AVBL
GOLDSBORO      CLOUDY    69  66  91 SW12      30.48R
WASHINGTON     CLOUDY    71  65  81 SW9       30.49F
GREENVILLE     CLOUDY    70  66  88 SW8       30.49R
NEW BERN       FAIR      71  64  78 SW9       30.51S
WILMINGTON     CLOUDY    73  64  73 SW8       30.51R
$$

VAZ048-221600-
ELSEWHERE

CITY           SKY/WX    TMP DP  RH WIND       PRES   REMARKS
HARRISBURG PA  CLOUDY    44  37  76 VRB6      30.54F
BALTIMORE      CLOUDY    51  42  71 NE13      30.49S
ANNAPOLIS      CLOUDY    52  44  74 NE12      30.49S
ANDREWS AFB    CLOUDY    54  40  59 NE10      30.47S
PHILADELPHIA   CLOUDY    47  40  76 NE13G22   30.54F
HENDERSON NC   CLOUDY    66  60  81 SW9       30.47S
GREENSBORO     DRIZZLE   65  64  97 SW14      30.46S
ROCKY MOUNT    CLOUDY    70  64  81 S13G18    30.49R
$$

VAZ100-221600-
MARINE

STATION/POSITION TIME  TEMP    WIND        PRES    WAVE   SWELL
                       AIR SEA DIR/SP/G            HT/PER HT/PER
                 (UTC) (F)     (DEG/KT/KT) (MB)    (FT/S) (FT/S)
BRANDYWINE LGT   1442   49      70/ 20/ 24 1033.3R
CAPE MAY NJ      1442   49 44   70/ 16/ 27 1032.4R
LEWES DE         1442   46 46   70/ 17/ 19 1033.0R
15NM E FENWICK I 1450   46 42   50/ 14/ 16 1032.1R   3/13   2/13
OCEAN-CITY-INLET 1448   48 42   30/  6/  9 1033.1R
WACHAPREAGUE VA  1442   54 57   50/  7/ 11 1031.6R
THOMAS POINT MD  1500   46 41   30/ 10/ 11   N/A
GOOSES REEF MD   1450   50     110/  8/ 12 1030.3
COVE POINT MD    1442   52     110/  5/  9 1032.8R
SOLOMONS ISLAND  1442   53 45   70/ 10/ 12 1031.6R
BISHOPS HEAD MD  1448   53 51   70/ 13/ 16 1032.2R
PINEY POINT MD   1442           90/  5/  8   N/A
POTOMAC MD       1450   50     150/  6/  8 1030.9
CAMBRIDGE MD     1448   54 49              1033.3R
LEWISETTA VA     1442   50 53   CALM  /  1 1031.4R
RAPPAHANNOCK LGT 1442          190/  9/ 10 1031.9R
STINGRAY PT      1450   48      50/  4/  4 1032.6
YORK RVR RNG VA  1442   62     260/  9/ 11 1031.9R
YORKTOWN VA      1442   66 47  220/  8/ 15 1030.8R
DOMINION TERM VA 1442   59     230/  6/  8 1031.7R
KIPTOPEKE VA     1442      46  200/  5/  6   N/A
CAPE HENRY VA    1442   67     230/ 12/ 17   N/A
S CRANEY ISL VA  1442   66     220/  7/ 13 1031.3R
CAPE HENRY BUOY  1500      45                N/A     3/ 6   2/13
1ST LANDING BUOY 1450   54     250/  8/  8 1031.5
CAPE CHARLES BUO 1451      45                N/A     2/14   2/14
64NM E OF VA BCH 1450   54 50  210/ 10/ 12 1032.5F   3/15   3/15
DUCK PIER NC     1442   63 45  220/  9/ 10 1032.2S
44100 DUCK FRF   1345      47                N/A     4/13   2/13
44056 DUCK FRF   1500      47                N/A     3/13   2/13
OREGON INLET NC  1442   61 62  250/  3/  5 1033.0R
HATTERAS NC      1442   68 60  230/  7/ 11 1033.2R
DIAMOND SHLS NC  1450   72 69  210/ 12/ 12 1033.7R   4/16   3/16
CAPE LOOKOUT NC  1500          220/  6/  7 1033.4S
$$




USA.gov is the U.S. government's official web portal to all federal, state and local government web resources and services.